Location: Newark
(41.6500°N, 71.4833°W)
Time: 07:47:02
(UTC+00:00)

A-11 Canister half - Pass Details

Date: 20 January 2020
Orbit: 1517 x 1683 km, 47.2° (Epoch: 17 February)

Event Time Altitude Azimuth Distance (km) Brightness Sun altitude
Rises 10:42:26 0° 294° (WNW) 4,664 - -15.9°
Reaches altitude 10° 10:45:28 10° 295° (WNW) 3,681 - -15.3°
Exits shadow 10:47:25 18° 295° (WNW) 3,066 10.0 -15.0°
Maximum altitude 10:54:46 87° 25° (NNE) 1,536 9.0 -13.6°
Drops below altitude 10° 11:04:15 10° 116° (ESE) 3,745 12.5 -11.9°
Sets 11:07:20 0° 116° (ESE) 4,748 13.6 -11.4°
